• In India
  • List of Countries
  • For 7 days
  • Water Temperature
  • Satellite Maps
  • Weather Map
  • Weather Widgets
  • user-avatar
    Login

    Hourly Weather Spytkowice

    Today, 23 June, Saturday

    Time Temperature Precipitation Wind Pressure Humidity
    00:00 +8°C° 0.3 mm 1 mps 715 mmHg 90%
    01:00 +7°C° 0 mm 1 mps 715 mmHg 91%
    02:00 +6°C° 0.1 mm 2 mps 715 mmHg 92%
    03:00 +6°C° 0.1 mm 2 mps 715 mmHg 93%
    04:00 +6°C° 0.1 mm 2 mps 715 mmHg 94%
    05:00 +7°C° 0.1 mm 2 mps 715 mmHg 91%
    06:00 +9°C° 0.1 mm 2 mps 715 mmHg 87%
    07:00 +10°C° 0.1 mm 3 mps 715 mmHg 84%
    08:00 +10°C° 0.4 mm 3 mps 715 mmHg 82%
    09:00 +11°C° 0.4 mm 3 mps 715 mmHg 81%
    10:00 +12°C° 0.4 mm 3 mps 715 mmHg 80%
    11:00 +12°C° 0.5 mm 4 mps 715 mmHg 78%
    12:00 +12°C° 0.5 mm 4 mps 715 mmHg 75%
    13:00 +13°C° 0.5 mm 4 mps 715 mmHg 73%
    14:00 +13°C° 0.4 mm 4 mps 715 mmHg 73%
    15:00 +13°C° 0.4 mm 4 mps 715 mmHg 73%
    16:00 +13°C° 0.4 mm 4 mps 715 mmHg 73%
    17:00 +12°C° 0.1 mm 4 mps 715 mmHg 76%
    18:00 +11°C° 0.1 mm 3 mps 714 mmHg 78%
    19:00 +10°C° 0.1 mm 2 mps 714 mmHg 81%
    20:00 +9°C° 0 mm 2 mps 715 mmHg 84%
    21:00 +8°C° 0 mm 2 mps 715 mmHg 87%
    22:00 +8°C° 0 mm 2 mps 715 mmHg 89%
    23:00 +8°C° 0 mm 2 mps 715 mmHg 90%

    Tomorrow, 24 June, Sunday

    Time Temperature Precipitation Wind Pressure Humidity
    00:00 +8°C° 0 mm 2 mps 715 mmHg 91%
    01:00 +8°C° 0 mm 2 mps 715 mmHg 92%
    02:00 +7°C° 0.1 mm 2 mps 715 mmHg 93%
    03:00 +7°C° 0.1 mm 2 mps 715 mmHg 94%
    04:00 +7°C° 0.1 mm 2 mps 715 mmHg 95%
    05:00 +8°C° 0.5 mm 2 mps 715 mmHg 94%
    06:00 +8°C° 0.5 mm 2 mps 715 mmHg 93%
    07:00 +9°C° 0.5 mm 2 mps 715 mmHg 92%
    08:00 +10°C° 0.3 mm 2 mps 715 mmHg 91%
    09:00 +10°C° 0.3 mm 2 mps 715 mmHg 90%
    10:00 +10°C° 0.3 mm 2 mps 715 mmHg 88%
    11:00 +13°C° 0.2 mm 2 mps 715 mmHg 81%
    12:00 +14°C° 0.2 mm 3 mps 715 mmHg 73%
    13:00 +16°C° 0.2 mm 3 mps 715 mmHg 65%
    14:00 +16°C° 0.3 mm 3 mps 715 mmHg 66%
    15:00 +16°C° 0.3 mm 3 mps 715 mmHg 66%
    16:00 +16°C° 0.3 mm 3 mps 715 mmHg 67%
    17:00 +15°C° 0.1 mm 2 mps 715 mmHg 72%
    18:00 +14°C° 0.1 mm 2 mps 714 mmHg 77%
    19:00 +13°C° 0.1 mm 1 mps 714 mmHg 82%
    20:00 +12°C° 0 mm 1 mps 714 mmHg 85%
    21:00 +11°C° 0 mm 1 mps 715 mmHg 88%
    22:00 +10°C° 0 mm 1 mps 715 mmHg 91%
    23:00 +10°C° 0 mm 1 mps 715 mmHg 92%

    Day after tomorrow, 25 June, Monday

    Time Temperature Precipitation Wind Pressure Humidity
    00:00 +9°C° 0 mm 1 mps 715 mmHg 93%
    01:00 +9°C° 0 mm 1 mps 715 mmHg 94%
    02:00 +9°C° 0.1 mm 1 mps 715 mmHg 94%
    03:00 +9°C° 0.1 mm 1 mps 715 mmHg 95%
    04:00 +9°C° 0.1 mm 1 mps 715 mmHg 95%
    05:00 +11°C° 0.1 mm 1 mps 715 mmHg 91%
    06:00 +12°C° 0.1 mm 1 mps 716 mmHg 87%
    07:00 +13°C° 0.1 mm 1 mps 716 mmHg 83%
    08:00 +14°C° 0.3 mm 1 mps 716 mmHg 82%
    09:00 +14°C° 0.3 mm 2 mps 716 mmHg 81%
    10:00 +15°C° 0.3 mm 2 mps 716 mmHg 80%
    11:00 +16°C° 0.4 mm 2 mps 717 mmHg 76%
    12:00 +17°C° 0.4 mm 2 mps 717 mmHg 73%
    13:00 +18°C° 0.4 mm 2 mps 717 mmHg 69%
    14:00 +17°C° 0.6 mm 2 mps 717 mmHg 71%
    15:00 +17°C° 0.6 mm 2 mps 717 mmHg 73%
    16:00 +17°C° 0.6 mm 2 mps 717 mmHg 75%
    17:00 +16°C° 0.3 mm 2 mps 717 mmHg 78%
    18:00 +15°C° 0.3 mm 1 mps 717 mmHg 82%
    19:00 +14°C° 0.3 mm 1 mps 717 mmHg 85%
    20:00 +13°C° 0 mm 1 mps 717 mmHg 87%
    21:00 +12°C° 0 mm 1 mps 717 mmHg 89%
    22:00 +11°C° 0 mm 1 mps 717 mmHg 90%
    23:00 +10°C° 0 mm 1 mps 717 mmHg 90%

    26 June, Tuesday

    Time Temperature Precipitation Wind Pressure Humidity
    00:00 +10°C° 0 mm 1 mps 717 mmHg 91%
    01:00 +10°C° 0 mm 1 mps 718 mmHg 91%
    02:00 +10°C° 0 mm 1 mps 718 mmHg 91%
    03:00 +9°C° 0 mm 1 mps 718 mmHg 91%
    04:00 +9°C° 0 mm 1 mps 718 mmHg 91%
    05:00 +11°C° 0 mm 1 mps 718 mmHg 87%
    06:00 +13°C° 0 mm 1 mps 718 mmHg 83%
    07:00 +15°C° 0 mm 1 mps 719 mmHg 78%
    08:00 +17°C° 0.1 mm 2 mps 719 mmHg 71%
    09:00 +18°C° 0.1 mm 2 mps 719 mmHg 63%
    10:00 +20°C° 0.1 mm 2 mps 719 mmHg 56%
    11:00 +20°C° 0.4 mm 2 mps 719 mmHg 57%
    12:00 +20°C° 0.4 mm 3 mps 719 mmHg 58%
    13:00 +21°C° 0.4 mm 3 mps 719 mmHg 60%
    14:00 +20°C° 0.4 mm 3 mps 719 mmHg 62%
    15:00 +20°C° 0.4 mm 3 mps 718 mmHg 65%
    16:00 +20°C° 0.4 mm 3 mps 718 mmHg 67%
    17:00 +18°C° 0.2 mm 2 mps 718 mmHg 71%
    18:00 +17°C° 0.2 mm 2 mps 718 mmHg 75%
    19:00 +16°C° 0.2 mm 1 mps 718 mmHg 79%
    20:00 +15°C° 0 mm 1 mps 718 mmHg 81%
    21:00 +13°C° 0 mm 1 mps 718 mmHg 83%
    22:00 +12°C° 0 mm 1 mps 718 mmHg 85%
    23:00 +11°C° 0 mm 1 mps 718 mmHg 86%

    27 June, Wednesday

    Time Temperature Precipitation Wind Pressure Humidity
    00:00 +11°C° 0 mm 1 mps 718 mmHg 88%
    01:00 +10°C° 0 mm 1 mps 718 mmHg 89%
    02:00 +10°C° 0 mm 1 mps 718 mmHg 90%
    03:00 +10°C° 0 mm 1 mps 718 mmHg 91%
    04:00 +10°C° 0 mm 1 mps 718 mmHg 92%
    05:00 +12°C° 0 mm 1 mps 718 mmHg 87%
    06:00 +14°C° 0 mm 2 mps 718 mmHg 83%
    07:00 +16°C° 0 mm 2 mps 719 mmHg 78%
    08:00 +17°C° 0.1 mm 2 mps 719 mmHg 71%
    09:00 +18°C° 0.1 mm 3 mps 718 mmHg 65%
    10:00 +19°C° 0.1 mm 3 mps 718 mmHg 58%
    11:00 +20°C° 0.3 mm 3 mps 718 mmHg 58%
    12:00 +20°C° 0.3 mm 4 mps 718 mmHg 59%
    13:00 +21°C° 0.3 mm 4 mps 717 mmHg 59%
    14:00 +20°C° 0.3 mm 4 mps 717 mmHg 62%
    15:00 +20°C° 0.3 mm 4 mps 717 mmHg 64%
    16:00 +19°C° 0.3 mm 4 mps 717 mmHg 67%
    17:00 +18°C° 0.1 mm 3 mps 716 mmHg 73%
    18:00 +17°C° 0.1 mm 2 mps 716 mmHg 78%
    19:00 +16°C° 0.1 mm 2 mps 716 mmHg 84%
    20:00 +15°C° 0.3 mm 2 mps 716 mmHg 87%
    21:00 +14°C° 0.3 mm 2 mps 716 mmHg 90%
    22:00 +13°C° 0.3 mm 1 mps 716 mmHg 94%
    23:00 +12°C° 0.4 mm 1 mps 715 mmHg 94%

    28 June, Thursday

    Time Temperature Precipitation Wind Pressure Humidity
    00:00 +12°C° 0.4 mm 1 mps 715 mmHg 95%
    01:00 +12°C° 0.4 mm 1 mps 715 mmHg 96%
    02:00 +12°C° 0.3 mm 2 mps 715 mmHg 97%
    03:00 +12°C° 0.3 mm 2 mps 715 mmHg 97%
    04:00 +12°C° 0.3 mm 2 mps 715 mmHg 97%
    05:00 +13°C° 0.4 mm 2 mps 715 mmHg 96%
    06:00 +12°C° 0.4 mm 3 mps 715 mmHg 95%
    07:00 +13°C° 0.4 mm 3 mps 715 mmHg 94%
    08:00 +13°C° 0.4 mm 3 mps 715 mmHg 93%
    09:00 +13°C° 0.4 mm 3 mps 715 mmHg 92%
    10:00 +13°C° 0.4 mm 3 mps 714 mmHg 91%
    11:00 +14°C° 0.8 mm 3 mps 714 mmHg 91%
    12:00 +14°C° 0.8 mm 3 mps 714 mmHg 91%
    13:00 +14°C° 0.8 mm 3 mps 714 mmHg 91%
    14:00 +16°C° 0.3 mm 2 mps 713 mmHg 90%
    15:00 +16°C° 0.3 mm 2 mps 713 mmHg 89%
    16:00 +16°C° 0.3 mm 2 mps 713 mmHg 88%
    17:00 +16°C° 0.3 mm 2 mps 713 mmHg 90%
    18:00 +16°C° 0.3 mm 2 mps 712 mmHg 92%
    19:00 +15°C° 0.3 mm 1 mps 712 mmHg 94%
    20:00 +15°C° 0.8 mm 1 mps 712 mmHg 95%
    21:00 +14°C° 0.8 mm 1 mps 711 mmHg 96%
    22:00 +14°C° 0.8 mm 1 mps 711 mmHg 97%
    23:00 +13°C° 0.3 mm 1 mps 711 mmHg 97%
    Show more